Погода в Новой Толковке

Россия / Республика Мордовия     54°14′41″N   44°02′07″E
темп.,
°C
ветер,
м/с
пор.,
м/с
влажн.,
%
обл.,
%
осадки,
мм/ч
давл.,
гПа
погр.,
м
14 июня, пн
пн1400:00+15ю239649 0.2 101243
03:00+14ююз22950 0.2 101311
06:00+17ю12905 0.0 1014117
09:00+22ю11713 0.0 1014611
12:00+24ю116098 0.7 10151302
15:00+24ю1159100 1.1 10141281
18:00+21ююв2383100 1.1 1014115
21:00+18ююв229296 1.3 101519
15 июня, вт
вт1500:00+16ю22956 0.0 101520
03:00+15юв119516 0.0 101511
06:00+17вюв129049 0.0 1014113
09:00+22в227140 0.0 1014676
12:00+24в336291 0.6 10131248
15:00+20юв2382100 0.9 1012196
18:00+22в247856 0.2 1010634
21:00+18всв2289100 2.1 101022
16 июня, ср
ср1600:00+16ссв349373 0.0 100962
03:00+16ссв369696 0.0 1008125
06:00+18с37935 0.0 1008233
09:00+23с45725 0.0 1007696
12:00+25ссз45657 0.3 10071253
15:00+25сз466842 3.4 10081474
18:00+20с498785 3.4 1009373
21:00+18с511933 3.6 1013561
17 июня, чт
чт1700:00+14ссз411930 0.0 1015371
03:00+12ссз25964 0.0 1017114
06:00+14ссз37840 0.0 1018248
09:00+18с58603 0.0 1019690
12:00+20ссз67470 0.0 10201517
15:00+21ссз68510 0.0 10211808
18:00+19ссз47630 0.0 1022806
21:00+14с22810 0.0 102324
18 июня, пт
пт1800:00+12с23790 0.0 102438
03:00+11с22800 0.0 102526
06:00+14с24770 0.0 1026143
09:00+20с24590 0.0 1026648
12:00+22с344611 0.0 10261907
15:00+23ссз33470 0.0 10261718
18:00+23с13590 0.0 10261010
21:00+16ююв227993 0.0 102612